Regional Weather Roundup
Issued by NWS Burlington, VT

Home | Current Version | Previous Version | Text Only | Print | Product List | Glossary On
Versions: 1 2 3 4 5 6 7 8 9 10 11 12 13 14 15 16 17 18 19 20 21 22 23 24 25 26 27 28 29 30 31 32 33 34 35 36 37 38 39 40 41 42 43 44 45 46 47 48 49 50
000
ASUS41 KBTV 252230
RWRBTV
VERMONT REGIONAL WEATHER ROUNDUP
NATIONAL WEATHER SERVICE BURLINGTON VT
600 PM EDT THU MAY 25 2017

NOTE: "FAIR" INDICATES FEW OR NO CLOUDS BELOW 12,000 FEET WITH NO
SIGNIFICANT WEATHER AND/OR OBSTRUCTIONS TO VISIBILITY.

* THESE REPORTS ARE NOT UNDER NWS QUALITY CONTROL AND/OR DO NOT
  REPORT WEATHER SUCH AS PRECIPITATION AND FOG.

VTZ001>019-252300-
_____VERMONT_____


CITY           SKY/WX    TMP DP  RH WIND       PRES   REMARKS
BURLINGTON     LGT RAIN  58  52  80 E17G28    29.70S
MONTPELIER     LGT RAIN  53  51  93 SE7       29.78F FOG
MORRISVILLE    RAIN      54  49  83 VRB5      29.75F
ST. JOHNSBURY*   N/A     57  48  72 MISG      29.74F
LYNDONVILLE*   LGT RAIN  55  47  77 NE15      29.78S
MIDDLEBURY*    DRIZZLE   55  50  81 S3        29.66F
RUTLAND*       CLOUDY    54  48  82 SE16G26   29.64F
SPRINGFIELD    LGT RAIN  52  47  83 NE9       29.74F
HIGHGATE*      RAIN      57  55  94 E3        29.71F
NEWPORT*       CLOUDY    55  49  81 E13G18    29.77F
BENNINGTON     CLOUDY    58  48  69 E10G33    29.59F
ISLAND POND*     N/A     55 N/A N/A E10         N/A
GALLUP MILLS*    N/A     54 N/A N/A MISG        N/A
UNION VILLAGE*   N/A     54 N/A N/A MISG        N/A
MT. MANSFIELD*   N/A     45 N/A N/A E45G63      N/A

_____LAKE CHAMPLAIN_____


CITY           SKY/WX    TMP DP  RH WIND       PRES   REMARKS
BURTON ISLAND*   N/A     59  54  82 E10         N/A
COLCHESTER RF*   N/A     57  52  82 SE14        N/A
DIAMOND ISL*     N/A     57  54  88 NW2         N/A

$$

NYZ007-026>031-035-052-083-087-252300-
_____NORTHERN NEW YORK_____


CITY           SKY/WX    TMP DP  RH WIND       PRES   REMARKS
PLATTSBURGH    LGT RAIN  57  52  83 E6        29.70F
SARANAC LAKE   LGT RAIN  52  51  97 NE14      29.62S
MASSENA        HVY RAIN  56  55  97 NE16      29.66F FOG
OGDENSBURG*    RAIN      56  55  95 E9G18     29.61S
POTSDAM*       LGT RAIN  55  55 100 NE9G16    29.60F
STARK FALLS*     N/A     55 N/A N/A E8          N/A
WATERTOWN      LGT RAIN  57  57 100 NE9       29.55F FOG
FT DRUM        DRIZZLE   56  55  94 E10       29.56S FOG
ALBANY         DRIZZLE   58  54  86 NE8       29.60F FOG

$$
NHZ002-005-011-252300-
_____NEW HAMPSHIRE_____


CITY           SKY/WX    TMP DP  RH WIND       PRES   REMARKS
LEBANON        CLOUDY    55  48  77 NE3G18    29.74F
KEENE          LGT RAIN  54  49  83 VRB5G18   29.69F
MT WASHINGTON  LGT RAIN  34  34 100 E51G72      N/A  VSB 0   WCI  17
WHITEFIELD     LGT RAIN  57  45  64 E12       29.76F

$$

_____REGIONAL QUEBEC LOCATIONS_____


CITY           SKY/WX    TMP DP  RH WIND       PRES   REMARKS
MONTREAL       LGT RAIN  61  52  72 E14       29.72F
QUEBEC CITY    CLOUDY    59  50  72 E14       29.85S
SHERBROOKE     LGT RAIN  57  50  77 E10G21    29.79S

_____REGIONAL ONTARIO LOCATIONS_____


CITY           SKY/WX    TMP DP  RH WIND       PRES   REMARKS
OTTAWA         LGT RAIN  57  55  94 E14G21    29.66F FOG

______KEY______
VSB  - VISIBILITY IN MILES
WCI  - WIND CHILL INDEX
HX   - HEAT INDEX
$$
NNNN



USA.gov is the U.S. government's official web portal to all federal, state and local government web resources and services.